Year,Month,Day,Hour,Minute,Value (Times are PST for temperature in C)
2010,07,21,00,00,16.30
2010,07,21,00,01,16.30
2010,07,21,00,02,16.30
2010,07,21,00,03,16.30
2010,07,21,00,04,16.30
2010,07,21,00,05,16.20
2010,07,21,00,06,16.20
2010,07,21,00,07,16.20
2010,07,21,00,08,16.20
2010,07,21,00,09,16.20
2010,07,21,00,10,16.10
2010,07,21,00,11,16.10
2010,07,21,00,12,16.10
2010,07,21,00,13,16.10
2010,07,21,00,14,16.10
2010,07,21,00,15,16.00
2010,07,21,00,16,16.00
2010,07,21,00,17,16.00
2010,07,21,00,18,15.90
2010,07,21,00,19,15.90
2010,07,21,00,20,15.90
2010,07,21,00,21,15.90
2010,07,21,00,22,15.80
2010,07,21,00,23,15.80
2010,07,21,00,24,15.80
2010,07,21,00,25,15.80
2010,07,21,00,26,15.80
2010,07,21,00,27,15.80
2010,07,21,00,28,15.80
2010,07,21,00,29,15.80
2010,07,21,00,30,15.70
2010,07,21,00,31,15.70
2010,07,21,00,32,15.70
2010,07,21,00,33,15.70
2010,07,21,00,34,15.70
2010,07,21,00,35,15.70
2010,07,21,00,36,15.70
2010,07,21,00,37,15.70
2010,07,21,00,38,15.70
2010,07,21,00,39,15.60
2010,07,21,00,40,15.60
2010,07,21,00,41,15.60
2010,07,21,00,42,15.60
2010,07,21,00,43,15.60
2010,07,21,00,44,15.50
2010,07,21,00,45,15.50
2010,07,21,00,46,15.50
2010,07,21,00,47,15.50
2010,07,21,00,48,15.50
2010,07,21,00,49,15.40
2010,07,21,00,50,15.40
2010,07,21,00,51,15.40
2010,07,21,00,52,15.40
2010,07,21,00,53,15.40
2010,07,21,00,54,15.40
2010,07,21,00,55,15.30
2010,07,21,00,56,15.30
2010,07,21,00,57,15.30
2010,07,21,00,58,15.30
2010,07,21,00,59,15.20
2010,07,21,01,00,15.20
2010,07,21,01,01,15.20
2010,07,21,01,02,15.10
2010,07,21,01,06,15.00
2010,07,21,01,07,15.00
2010,07,21,01,08,15.00
2010,07,21,01,09,15.00
2010,07,21,01,10,15.00
2010,07,21,01,11,15.00
2010,07,21,01,12,15.00
2010,07,21,01,13,15.00
2010,07,21,01,14,15.00
2010,07,21,01,15,15.00
2010,07,21,01,16,15.00
2010,07,21,01,17,15.00
2010,07,21,01,18,15.00
2010,07,21,01,19,15.00
2010,07,21,01,20,15.00
2010,07,21,01,21,15.00
2010,07,21,01,22,15.00
2010,07,21,01,23,15.00
2010,07,21,01,24,15.00
2010,07,21,01,25,15.00
2010,07,21,01,26,15.00
2010,07,21,01,27,15.00
2010,07,21,01,28,15.00
2010,07,21,01,29,15.00
2010,07,21,01,30,15.00
2010,07,21,01,31,15.00
2010,07,21,01,32,15.00
2010,07,21,01,33,14.90
2010,07,21,01,34,14.90
2010,07,21,01,35,14.90
2010,07,21,01,36,14.90
2010,07,21,01,37,14.80
2010,07,21,01,38,14.80
2010,07,21,01,39,14.80
2010,07,21,01,40,14.80
2010,07,21,01,41,14.80
2010,07,21,01,42,14.70
2010,07,21,01,43,14.70
2010,07,21,01,44,14.70
2010,07,21,01,45,14.70
2010,07,21,01,46,14.70
2010,07,21,01,47,14.70
2010,07,21,01,48,14.60
2010,07,21,01,49,14.60
2010,07,21,01,50,14.60
2010,07,21,01,51,14.60
2010,07,21,01,52,14.60
2010,07,21,01,53,14.60
2010,07,21,01,54,14.60
2010,07,21,01,55,14.50
2010,07,21,01,56,14.50
2010,07,21,01,57,14.50
2010,07,21,01,58,14.50
2010,07,21,01,59,14.40
2010,07,21,02,00,14.40
2010,07,21,02,01,14.40
2010,07,21,02,02,14.40
2010,07,21,02,03,14.40
2010,07,21,02,04,14.40
2010,07,21,02,05,14.40
2010,07,21,02,06,14.40
2010,07,21,02,07,14.40
2010,07,21,02,08,14.40
2010,07,21,02,09,14.40
2010,07,21,02,10,14.40
2010,07,21,02,11,14.40
2010,07,21,02,12,14.40
2010,07,21,02,13,14.40
2010,07,21,02,14,14.40
2010,07,21,02,15,14.40
2010,07,21,02,16,14.30
2010,07,21,02,17,14.30
2010,07,21,02,18,14.30
2010,07,21,02,19,14.30
2010,07,21,02,20,14.30
2010,07,21,02,21,14.30
2010,07,21,02,22,14.30
2010,07,21,02,23,14.30
2010,07,21,02,24,14.30
2010,07,21,02,25,14.30
2010,07,21,02,26,14.30
2010,07,21,02,27,14.30
2010,07,21,02,28,14.30
2010,07,21,02,29,14.30
2010,07,21,02,30,14.20
2010,07,21,02,31,14.20
2010,07,21,02,32,14.20
2010,07,21,02,33,14.20
2010,07,21,02,34,14.20
2010,07,21,02,35,14.20
2010,07,21,02,36,14.20
2010,07,21,02,37,14.20
2010,07,21,02,38,14.10
2010,07,21,02,39,14.10
2010,07,21,02,40,14.10
2010,07,21,02,41,14.10
2010,07,21,02,42,14.10
2010,07,21,02,43,14.10
2010,07,21,02,44,14.10
2010,07,21,02,45,14.10
2010,07,21,02,46,14.10
2010,07,21,02,47,14.10
2010,07,21,02,48,14.00
2010,07,21,02,49,14.00
2010,07,21,02,50,14.00
2010,07,21,02,51,14.00
2010,07,21,02,52,14.00
2010,07,21,02,53,14.00
2010,07,21,02,54,14.00
2010,07,21,02,55,14.00
2010,07,21,02,56,13.90
2010,07,21,02,57,13.90
2010,07,21,02,58,13.90
2010,07,21,02,59,13.90
2010,07,21,03,00,13.90
2010,07,21,03,01,13.90
2010,07,21,03,02,13.90
2010,07,21,03,03,13.90
2010,07,21,03,04,13.90
2010,07,21,03,05,13.90
2010,07,21,03,06,13.90
2010,07,21,03,07,13.90
2010,07,21,03,08,13.90
2010,07,21,03,09,13.90
2010,07,21,03,10,13.90
2010,07,21,03,11,13.90
2010,07,21,03,12,13.90
2010,07,21,03,13,13.90
2010,07,21,03,14,13.90
2010,07,21,03,15,13.90
2010,07,21,03,16,13.80
2010,07,21,03,17,13.80
2010,07,21,03,18,13.80
2010,07,21,03,19,13.80
2010,07,21,03,20,13.80
2010,07,21,03,21,13.80
2010,07,21,03,22,13.80
2010,07,21,03,23,13.80
2010,07,21,03,24,13.80
2010,07,21,03,25,13.80
2010,07,21,03,26,13.80
2010,07,21,03,27,13.80
2010,07,21,03,28,13.80
2010,07,21,03,29,13.70
2010,07,21,03,30,13.70
2010,07,21,03,31,13.70
2010,07,21,03,32,13.70
2010,07,21,03,33,13.70
2010,07,21,03,34,13.70
2010,07,21,03,35,13.70
2010,07,21,03,36,13.70
2010,07,21,03,37,13.70
2010,07,21,03,38,13.70
2010,07,21,03,39,13.70
2010,07,21,03,40,13.70
2010,07,21,03,41,13.70
2010,07,21,03,42,13.70
2010,07,21,03,43,13.60
2010,07,21,03,44,13.60
2010,07,21,03,45,13.60
2010,07,21,03,46,13.60
2010,07,21,03,47,13.60
2010,07,21,03,48,13.60
2010,07,21,03,49,13.60
2010,07,21,03,50,13.60
2010,07,21,03,51,13.60
2010,07,21,03,52,13.60
2010,07,21,03,53,13.50
2010,07,21,03,54,13.50
2010,07,21,03,55,13.50
2010,07,21,03,56,13.50
2010,07,21,03,57,13.50
2010,07,21,03,58,13.50
2010,07,21,03,59,13.50
2010,07,21,04,00,13.50
2010,07,21,04,01,13.40
2010,07,21,04,02,13.40
2010,07,21,04,03,13.40
2010,07,21,04,04,13.40
2010,07,21,04,05,13.40
2010,07,21,04,06,13.40
2010,07,21,04,07,13.40
2010,07,21,04,08,13.40
2010,07,21,04,09,13.40
2010,07,21,04,10,13.40
2010,07,21,04,11,13.40
2010,07,21,04,12,13.40
2010,07,21,04,13,13.40
2010,07,21,04,14,13.30
2010,07,21,04,15,13.30
2010,07,21,04,16,13.30
2010,07,21,04,17,13.30
2010,07,21,04,18,13.30
2010,07,21,04,19,13.30
2010,07,21,04,20,13.30
2010,07,21,04,21,13.30
2010,07,21,04,22,13.30
2010,07,21,04,23,13.30
2010,07,21,04,24,13.30
2010,07,21,04,25,13.30
2010,07,21,04,26,13.30
2010,07,21,04,27,13.30
2010,07,21,04,28,13.30
2010,07,21,04,29,13.30
2010,07,21,04,30,13.30
2010,07,21,04,31,13.30
2010,07,21,04,32,13.30
2010,07,21,04,33,13.30
2010,07,21,04,34,13.30
2010,07,21,04,35,13.30
2010,07,21,04,36,13.20
2010,07,21,04,37,13.20
2010,07,21,04,38,13.20
2010,07,21,04,39,13.20
2010,07,21,04,40,13.20
2010,07,21,04,41,13.20
2010,07,21,04,42,13.20
2010,07,21,04,43,13.20
2010,07,21,04,44,13.20
2010,07,21,04,45,13.20
2010,07,21,04,46,13.20
2010,07,21,04,47,13.20
2010,07,21,04,48,13.10
2010,07,21,04,49,13.10
2010,07,21,04,50,13.10
2010,07,21,04,51,13.10
2010,07,21,04,52,13.10
2010,07,21,04,53,13.10
2010,07,21,04,54,13.10
2010,07,21,04,55,13.10
2010,07,21,04,56,13.10
2010,07,21,04,57,13.10
2010,07,21,04,58,13.10
2010,07,21,04,59,13.10
2010,07,21,05,00,13.10
2010,07,21,05,01,13.10
2010,07,21,05,02,13.10
2010,07,21,05,03,13.10
2010,07,21,05,04,13.10
2010,07,21,05,05,13.10
2010,07,21,05,06,13.10
2010,07,21,05,07,13.10
2010,07,21,05,08,13.10
2010,07,21,05,09,13.10
2010,07,21,05,10,13.10
2010,07,21,05,11,13.10
2010,07,21,05,12,13.10
2010,07,21,05,13,13.10
2010,07,21,05,14,13.10
2010,07,21,05,15,13.10
2010,07,21,05,16,13.10
2010,07,21,05,17,13.10
2010,07,21,05,18,13.00
2010,07,21,05,19,13.00
2010,07,21,05,20,13.00
2010,07,21,05,21,13.00
2010,07,21,05,22,13.00
2010,07,21,05,23,13.00
2010,07,21,05,24,13.00
2010,07,21,05,25,13.00
2010,07,21,05,26,13.00
2010,07,21,05,27,12.90
2010,07,21,05,28,12.90
2010,07,21,05,29,12.90
2010,07,21,05,30,12.90
2010,07,21,05,31,12.90
2010,07,21,05,32,12.90
2010,07,21,05,33,12.90
2010,07,21,05,34,12.90
2010,07,21,05,35,12.90
2010,07,21,05,36,12.90
2010,07,21,05,37,12.90
2010,07,21,05,38,12.90
2010,07,21,05,39,12.90
2010,07,21,05,40,12.90
2010,07,21,05,41,12.90
2010,07,21,05,42,12.90
2010,07,21,05,43,12.90
2010,07,21,05,44,12.90
2010,07,21,05,45,12.90
2010,07,21,05,46,12.90
2010,07,21,05,47,12.90
2010,07,21,05,48,12.90
2010,07,21,05,49,12.90
2010,07,21,05,50,12.90
2010,07,21,05,51,13.00
2010,07,21,05,52,13.00
2010,07,21,05,53,13.00
2010,07,21,05,54,13.00
2010,07,21,05,55,13.00
2010,07,21,05,56,13.00
2010,07,21,05,57,13.00
2010,07,21,05,58,13.00
2010,07,21,05,59,13.00
2010,07,21,06,00,13.00
2010,07,21,06,01,13.00
2010,07,21,06,02,13.00
2010,07,21,06,03,13.00
2010,07,21,06,04,13.00
2010,07,21,06,05,13.00
2010,07,21,06,06,13.00
2010,07,21,06,07,13.00
2010,07,21,06,08,13.00
2010,07,21,06,09,13.00
2010,07,21,06,10,13.00
2010,07,21,06,11,13.00
2010,07,21,06,12,13.00
2010,07,21,06,13,13.00
2010,07,21,06,14,13.00
2010,07,21,06,15,13.00
2010,07,21,06,16,13.00
2010,07,21,06,17,13.00
2010,07,21,06,18,13.00
2010,07,21,06,19,13.00
2010,07,21,06,20,13.00
2010,07,21,06,21,13.00
2010,07,21,06,22,13.00
2010,07,21,06,23,13.00
2010,07,21,06,24,13.00
2010,07,21,06,25,13.00
2010,07,21,06,26,13.00
2010,07,21,06,27,12.90
2010,07,21,06,28,12.90
2010,07,21,06,29,12.90
2010,07,21,06,30,12.90
2010,07,21,06,31,12.90
2010,07,21,06,32,12.90
2010,07,21,06,33,12.90
2010,07,21,06,34,12.90
2010,07,21,06,35,12.90
2010,07,21,06,36,12.90
2010,07,21,06,37,12.90
2010,07,21,06,38,13.00
2010,07,21,06,39,13.00
2010,07,21,06,40,13.00
2010,07,21,06,41,13.00
2010,07,21,06,42,13.00
2010,07,21,06,43,13.00
2010,07,21,06,44,13.00
2010,07,21,06,45,13.00
2010,07,21,06,46,13.00
2010,07,21,06,47,13.00
2010,07,21,06,48,13.00
2010,07,21,06,49,13.00
2010,07,21,06,50,13.00
2010,07,21,06,51,13.00
2010,07,21,06,52,13.00
2010,07,21,06,53,13.00
2010,07,21,06,54,13.10
2010,07,21,06,55,13.10
2010,07,21,06,56,13.10
2010,07,21,06,57,13.10
2010,07,21,06,58,13.10
2010,07,21,06,59,13.10
2010,07,21,07,00,13.10
2010,07,21,07,01,13.10
2010,07,21,07,02,13.10
2010,07,21,07,03,13.10
2010,07,21,07,04,13.10
2010,07,21,07,05,13.10
2010,07,21,07,06,13.10
2010,07,21,07,07,13.10
2010,07,21,07,08,13.10
2010,07,21,07,09,13.10
2010,07,21,07,10,13.20
2010,07,21,07,11,13.20
2010,07,21,07,12,13.20
2010,07,21,07,13,13.20
2010,07,21,07,14,13.20
2010,07,21,07,15,13.20
2010,07,21,07,16,13.20
2010,07,21,07,17,13.20
2010,07,21,07,18,13.20
2010,07,21,07,19,13.20
2010,07,21,07,20,13.20
2010,07,21,07,21,13.30
2010,07,21,07,22,13.30
2010,07,21,07,23,13.30
2010,07,21,07,24,13.30
2010,07,21,07,25,13.30
2010,07,21,07,26,13.30
2010,07,21,07,27,13.30
2010,07,21,07,28,13.30
2010,07,21,07,29,13.30
2010,07,21,07,30,13.30
2010,07,21,07,31,13.30
2010,07,21,07,32,13.30
2010,07,21,07,33,13.30
2010,07,21,07,34,13.30
2010,07,21,07,35,13.30
2010,07,21,07,36,13.30
2010,07,21,07,37,13.30
2010,07,21,07,38,13.40
2010,07,21,07,39,13.40
2010,07,21,07,40,13.40
2010,07,21,07,41,13.40
2010,07,21,07,42,13.40
2010,07,21,07,43,13.40
2010,07,21,07,44,13.40
2010,07,21,07,45,13.40
2010,07,21,07,46,13.50
2010,07,21,07,47,13.50
2010,07,21,07,48,13.50
2010,07,21,07,49,13.60
2010,07,21,07,50,13.60
2010,07,21,07,51,13.60
2010,07,21,07,52,13.60
2010,07,21,07,53,13.60
2010,07,21,07,54,13.70
2010,07,21,07,55,13.70
2010,07,21,07,56,13.70
2010,07,21,07,57,13.70
2010,07,21,07,58,13.70
2010,07,21,07,59,13.80
2010,07,21,08,00,13.80
2010,07,21,08,01,13.80
2010,07,21,08,02,13.80
2010,07,21,08,03,13.90
2010,07,21,08,04,13.90
2010,07,21,08,05,13.90
2010,07,21,08,06,14.00
2010,07,21,08,07,14.00
2010,07,21,08,08,14.10
2010,07,21,08,09,14.10
2010,07,21,08,10,14.20
2010,07,21,08,11,14.20
2010,07,21,08,12,14.20
2010,07,21,08,13,14.20
2010,07,21,08,14,14.30
2010,07,21,08,15,14.30
2010,07,21,08,16,14.30
2010,07,21,08,17,14.40
2010,07,21,08,18,14.40
2010,07,21,08,19,14.40
2010,07,21,08,20,14.50
2010,07,21,08,21,14.50
2010,07,21,08,22,14.60
2010,07,21,08,23,14.60
2010,07,21,08,24,14.70
2010,07,21,08,25,14.70
2010,07,21,08,26,14.80
2010,07,21,08,27,14.80
2010,07,21,08,28,14.90
2010,07,21,08,29,14.90
2010,07,21,08,30,15.00
2010,07,21,08,31,15.00
2010,07,21,08,32,15.00
2010,07,21,08,33,15.00
2010,07,21,08,34,15.00
2010,07,21,08,35,15.00
2010,07,21,08,36,15.00
2010,07,21,08,37,15.10
2010,07,21,08,38,15.20
2010,07,21,08,39,15.20
2010,07,21,08,40,15.30
2010,07,21,08,41,15.30
2010,07,21,08,42,15.40
2010,07,21,08,43,15.40
2010,07,21,08,44,15.50
2010,07,21,08,45,15.50
2010,07,21,08,46,15.60
2010,07,21,08,47,15.60
2010,07,21,08,48,15.60
2010,07,21,08,49,15.70
2010,07,21,08,50,15.70
2010,07,21,08,51,15.80
2010,07,21,08,52,15.80
2010,07,21,08,53,15.80
2010,07,21,08,54,15.90
2010,07,21,08,55,15.90
2010,07,21,08,56,16.00
2010,07,21,08,57,16.00
2010,07,21,08,58,16.00
2010,07,21,08,59,16.10
2010,07,21,09,00,16.10
2010,07,21,09,01,16.10
2010,07,21,09,02,16.20
2010,07,21,09,03,16.20
2010,07,21,09,04,16.20
2010,07,21,09,05,16.30
2010,07,21,09,06,16.30
2010,07,21,09,07,16.30
2010,07,21,09,08,16.40
2010,07,21,09,09,16.50
2010,07,21,09,10,16.50
2010,07,21,09,11,16.50
2010,07,21,09,12,16.60
2010,07,21,09,13,16.60
2010,07,21,09,14,16.70
2010,07,21,09,15,16.70
2010,07,21,09,16,16.70
2010,07,21,09,17,16.80
2010,07,21,09,18,16.80
2010,07,21,09,19,16.90
2010,07,21,09,20,16.90
2010,07,21,09,21,17.00
2010,07,21,09,22,17.10
2010,07,21,09,23,17.10
2010,07,21,09,24,17.20
2010,07,21,09,25,17.20
2010,07,21,09,26,17.30
2010,07,21,09,27,17.30
2010,07,21,09,28,17.40
2010,07,21,09,29,17.40
2010,07,21,09,30,17.50
2010,07,21,09,31,17.60
2010,07,21,09,32,17.60
2010,07,21,09,33,17.70
2010,07,21,09,34,17.70
2010,07,21,09,35,17.70
2010,07,21,09,36,17.80
2010,07,21,09,37,17.80
2010,07,21,09,38,17.80
2010,07,21,09,39,17.80
2010,07,21,09,40,17.90
2010,07,21,09,41,17.90
2010,07,21,09,42,17.90
2010,07,21,09,43,17.90
2010,07,21,09,44,18.00
2010,07,21,09,45,18.00
2010,07,21,09,46,18.00
2010,07,21,09,47,18.10
2010,07,21,09,48,18.10
2010,07,21,09,49,18.10
2010,07,21,09,50,18.20
2010,07,21,09,51,18.20
2010,07,21,09,52,18.20
2010,07,21,09,53,18.30
2010,07,21,09,54,18.30
2010,07,21,09,55,18.30
2010,07,21,09,56,18.40
2010,07,21,09,57,18.40
2010,07,21,09,58,18.40
2010,07,21,09,59,18.40
2010,07,21,10,00,18.50
2010,07,21,10,01,18.60
2010,07,21,10,02,18.60
2010,07,21,10,03,18.60
2010,07,21,10,04,18.70
2010,07,21,10,05,18.70
2010,07,21,10,06,18.80
2010,07,21,10,07,18.90
2010,07,21,10,08,18.90
2010,07,21,10,09,19.00
2010,07,21,10,10,19.00
2010,07,21,10,11,19.10
2010,07,21,10,12,19.10
2010,07,21,10,13,19.20
2010,07,21,10,14,19.20
2010,07,21,10,15,19.20
2010,07,21,10,16,19.30
2010,07,21,10,17,19.30
2010,07,21,10,18,19.30
2010,07,21,10,19,19.30
2010,07,21,10,20,19.40
2010,07,21,10,21,19.40
2010,07,21,10,22,19.40
2010,07,21,10,23,19.50
2010,07,21,10,24,19.50
2010,07,21,10,25,19.60
2010,07,21,10,26,19.60
2010,07,21,10,27,19.70
2010,07,21,10,28,19.70
2010,07,21,10,29,19.70
2010,07,21,10,30,19.80
2010,07,21,10,31,19.80
2010,07,21,10,32,19.80
2010,07,21,10,33,19.80
2010,07,21,10,34,19.90
2010,07,21,10,35,19.90
2010,07,21,10,36,20.00
2010,07,21,10,37,20.00
2010,07,21,10,38,20.00
2010,07,21,10,39,20.00
2010,07,21,10,40,20.10
2010,07,21,10,41,20.20
2010,07,21,10,42,20.20
2010,07,21,10,43,20.30
2010,07,21,10,44,20.30
2010,07,21,10,45,20.30
2010,07,21,10,46,20.40
2010,07,21,10,47,20.40
2010,07,21,10,48,20.50
2010,07,21,10,49,20.60
2010,07,21,10,50,20.70
2010,07,21,10,51,20.80
2010,07,21,10,52,20.80
2010,07,21,10,53,21.00
2010,07,21,10,54,21.10
2010,07,21,10,55,21.20
2010,07,21,10,56,21.30
2010,07,21,10,57,21.40
2010,07,21,10,58,21.50
2010,07,21,10,59,21.50
2010,07,21,11,00,21.60
2010,07,21,11,01,21.70
2010,07,21,11,02,21.80
2010,07,21,11,03,21.90
2010,07,21,11,04,21.90
2010,07,21,11,05,21.90
2010,07,21,11,06,22.00
2010,07,21,11,07,22.00
2010,07,21,11,08,22.10
2010,07,21,11,09,22.20
2010,07,21,11,10,22.20
2010,07,21,11,11,22.30
2010,07,21,11,12,22.40
2010,07,21,11,13,22.50
2010,07,21,11,14,22.60
2010,07,21,11,15,22.70
2010,07,21,11,16,22.80
2010,07,21,11,17,22.90
2010,07,21,11,18,23.00
2010,07,21,11,19,23.20
2010,07,21,11,20,23.30
2010,07,21,11,21,23.40
2010,07,21,11,22,23.40
2010,07,21,11,23,23.50
2010,07,21,11,24,23.60
2010,07,21,11,25,23.70
2010,07,21,11,26,23.70
2010,07,21,11,27,23.80
2010,07,21,11,28,23.80
2010,07,21,11,29,23.90
2010,07,21,11,30,23.90
2010,07,21,11,31,24.00
2010,07,21,11,32,24.00
2010,07,21,11,33,24.10
2010,07,21,11,34,24.20
2010,07,21,11,35,24.30
2010,07,21,11,36,24.30
2010,07,21,11,37,24.30
2010,07,21,11,38,24.30
2010,07,21,11,39,24.40
2010,07,21,11,40,24.40
2010,07,21,11,41,24.40
2010,07,21,11,42,24.40
2010,07,21,11,43,24.40
2010,07,21,11,44,24.50
2010,07,21,11,45,24.50
2010,07,21,11,46,24.50
2010,07,21,11,47,24.60
2010,07,21,11,48,24.70
2010,07,21,11,49,24.80
2010,07,21,11,50,24.80
2010,07,21,11,51,24.90
2010,07,21,11,52,25.00
2010,07,21,11,53,25.00
2010,07,21,11,54,25.10
2010,07,21,11,55,25.20
2010,07,21,11,56,25.30
2010,07,21,11,57,25.40
2010,07,21,11,58,25.50
2010,07,21,11,59,25.60
2010,07,21,12,00,25.70
2010,07,21,12,01,25.80
2010,07,21,12,02,25.80
2010,07,21,12,03,25.80
2010,07,21,12,04,25.80
2010,07,21,12,05,25.90
2010,07,21,12,06,25.90
2010,07,21,12,07,26.00
2010,07,21,12,08,26.00
2010,07,21,12,09,26.10
2010,07,21,12,10,26.10
2010,07,21,12,11,26.00
2010,07,21,12,12,26.00
2010,07,21,12,13,25.90
2010,07,21,12,14,25.90
2010,07,21,12,15,25.80
2010,07,21,12,16,25.80
2010,07,21,12,17,25.80
2010,07,21,12,18,25.90
2010,07,21,12,19,25.90
2010,07,21,12,20,25.90
2010,07,21,12,21,26.00
2010,07,21,12,22,26.00
2010,07,21,12,23,26.00
2010,07,21,12,24,26.10
2010,07,21,12,25,26.10
2010,07,21,12,26,26.20
2010,07,21,12,27,26.20
2010,07,21,12,28,26.30
2010,07,21,12,29,26.30
2010,07,21,12,30,26.30
2010,07,21,12,31,26.40
2010,07,21,12,32,26.40
2010,07,21,12,33,26.40
2010,07,21,12,34,26.40
2010,07,21,12,35,26.50
2010,07,21,12,36,26.60
2010,07,21,12,37,26.60
2010,07,21,12,38,26.70
2010,07,21,12,39,26.70
2010,07,21,12,40,26.70
2010,07,21,12,41,26.70
2010,07,21,12,42,26.80
2010,07,21,12,43,26.80
2010,07,21,12,44,26.90
2010,07,21,12,45,26.90
2010,07,21,12,46,26.90
2010,07,21,12,47,26.80
2010,07,21,12,48,26.80
2010,07,21,12,49,26.80
2010,07,21,12,50,26.80
2010,07,21,12,51,26.80
2010,07,21,12,52,26.80
2010,07,21,12,53,26.80
2010,07,21,12,54,26.80
2010,07,21,12,55,26.80
2010,07,21,12,56,26.80
2010,07,21,12,57,26.70
2010,07,21,12,58,26.70
2010,07,21,12,59,26.70
2010,07,21,13,00,26.70
2010,07,21,13,01,26.70
2010,07,21,13,02,26.70
2010,07,21,13,03,26.70
2010,07,21,13,04,26.70
2010,07,21,13,05,26.80
2010,07,21,13,06,26.80
2010,07,21,13,07,26.90
2010,07,21,13,08,27.00
2010,07,21,13,09,27.00
2010,07,21,13,10,27.00
2010,07,21,13,11,27.10
2010,07,21,13,12,27.10
2010,07,21,13,13,27.10
2010,07,21,13,14,27.10
2010,07,21,13,15,27.10
2010,07,21,13,16,27.10
2010,07,21,13,17,27.10
2010,07,21,13,18,27.10
2010,07,21,13,19,27.10
2010,07,21,13,20,27.10
2010,07,21,13,21,27.20
2010,07,21,13,22,27.20
2010,07,21,13,23,27.30
2010,07,21,13,24,27.30
2010,07,21,13,25,27.30
2010,07,21,13,26,27.30
2010,07,21,13,27,27.30
2010,07,21,13,28,27.30
2010,07,21,13,29,27.30
2010,07,21,13,30,27.30
2010,07,21,13,31,27.30
2010,07,21,13,32,27.40
2010,07,21,13,33,27.50
2010,07,21,13,34,27.50
2010,07,21,13,35,27.60
2010,07,21,13,36,27.60
2010,07,21,13,37,27.60
2010,07,21,13,38,27.70
2010,07,21,13,39,27.70
2010,07,21,13,40,27.70
2010,07,21,13,41,27.80
2010,07,21,13,42,27.80
2010,07,21,13,43,27.90
2010,07,21,13,44,27.90
2010,07,21,13,45,27.90
2010,07,21,13,46,27.90
2010,07,21,13,47,27.80
2010,07,21,13,48,27.80
2010,07,21,13,49,27.80
2010,07,21,13,50,27.80
2010,07,21,13,51,27.80
2010,07,21,13,52,27.80
2010,07,21,13,53,27.80
2010,07,21,13,54,27.90
2010,07,21,13,55,27.90
2010,07,21,13,56,28.00
2010,07,21,13,57,28.10
2010,07,21,13,58,28.10
2010,07,21,13,59,28.10
2010,07,21,14,00,28.20
2010,07,21,14,01,28.20
2010,07,21,14,02,28.20
2010,07,21,14,03,28.20
2010,07,21,14,04,28.10
2010,07,21,14,05,28.00
2010,07,21,14,06,28.00
2010,07,21,14,07,28.00
2010,07,21,14,08,28.00
2010,07,21,14,09,28.00
2010,07,21,14,10,28.10
2010,07,21,14,11,28.10
2010,07,21,14,12,28.20
2010,07,21,14,13,28.20
2010,07,21,14,14,28.30
2010,07,21,14,15,28.30
2010,07,21,14,16,28.40
2010,07,21,14,17,28.50
2010,07,21,14,18,28.50
2010,07,21,14,19,28.50
2010,07,21,14,20,28.60
2010,07,21,14,21,28.60
2010,07,21,14,22,28.70
2010,07,21,14,23,28.70
2010,07,21,14,24,28.70
2010,07,21,14,25,28.70
2010,07,21,14,26,28.70
2010,07,21,14,27,28.70
2010,07,21,14,28,28.70
2010,07,21,14,29,28.70
2010,07,21,14,30,28.70
2010,07,21,14,31,28.70
2010,07,21,14,32,28.70
2010,07,21,14,33,28.70
2010,07,21,14,34,28.60
2010,07,21,14,35,28.60
2010,07,21,14,36,28.60
2010,07,21,14,37,28.60
2010,07,21,14,38,28.50
2010,07,21,14,39,28.50
2010,07,21,14,40,28.50
2010,07,21,14,41,28.40
2010,07,21,14,42,28.50
2010,07,21,14,43,28.50
2010,07,21,14,44,28.60
2010,07,21,14,45,28.70
2010,07,21,14,46,28.70
2010,07,21,14,47,28.80
2010,07,21,14,48,28.80
2010,07,21,14,49,28.90
2010,07,21,14,50,28.90
2010,07,21,14,51,28.90
2010,07,21,14,52,28.90
2010,07,21,14,53,28.90
2010,07,21,14,54,28.90
2010,07,21,14,55,28.90
2010,07,21,14,56,28.90
2010,07,21,14,57,28.90
2010,07,21,14,58,28.90
2010,07,21,14,59,28.90
2010,07,21,15,00,28.90
2010,07,21,15,01,28.90
2010,07,21,15,02,28.90
2010,07,21,15,03,28.90
2010,07,21,15,04,28.90
2010,07,21,15,05,28.90
2010,07,21,15,06,28.80
2010,07,21,15,07,28.70
2010,07,21,15,08,28.70
2010,07,21,15,09,28.70
2010,07,21,15,10,28.70
2010,07,21,15,11,28.70
2010,07,21,15,12,28.70
2010,07,21,15,13,28.70
2010,07,21,15,14,28.60
2010,07,21,15,15,28.70
2010,07,21,15,16,28.70
2010,07,21,15,17,28.70
2010,07,21,15,18,28.70
2010,07,21,15,19,28.70
2010,07,21,15,20,28.80
2010,07,21,15,21,28.80
2010,07,21,15,22,28.80
2010,07,21,15,23,28.80
2010,07,21,15,24,28.80
2010,07,21,15,25,28.80
2010,07,21,15,26,28.80
2010,07,21,15,27,28.70
2010,07,21,15,28,28.70
2010,07,21,15,29,28.70
2010,07,21,15,30,28.70
2010,07,21,15,31,28.70
2010,07,21,15,32,28.60
2010,07,21,15,33,28.60
2010,07,21,15,34,28.60
2010,07,21,15,35,28.50
2010,07,21,15,36,28.50
2010,07,21,15,37,28.50
2010,07,21,15,38,28.40
2010,07,21,15,39,28.40
2010,07,21,15,40,28.40
2010,07,21,15,41,28.50
2010,07,21,15,42,28.60
2010,07,21,15,43,28.70
2010,07,21,15,44,28.70
2010,07,21,15,45,28.70
2010,07,21,15,46,28.80
2010,07,21,15,47,28.80
2010,07,21,15,48,28.80
2010,07,21,15,49,28.80
2010,07,21,15,50,28.80
2010,07,21,15,51,28.80
2010,07,21,15,52,28.80
2010,07,21,15,53,28.80
2010,07,21,15,54,28.90
2010,07,21,15,55,28.90
2010,07,21,15,56,29.00
2010,07,21,15,57,29.00
2010,07,21,15,58,29.20
2010,07,21,15,59,29.20
2010,07,21,16,00,29.30
2010,07,21,16,01,29.30
2010,07,21,16,02,29.40
2010,07,21,16,03,29.40
2010,07,21,16,04,29.40
2010,07,21,16,05,29.40
2010,07,21,16,06,29.40
2010,07,21,16,07,29.40
2010,07,21,16,08,29.40
2010,07,21,16,09,29.40
2010,07,21,16,10,29.30
2010,07,21,16,11,29.30
2010,07,21,16,12,29.20
2010,07,21,16,13,29.20
2010,07,21,16,14,29.20
2010,07,21,16,15,29.20
2010,07,21,16,16,29.10
2010,07,21,16,17,29.10
2010,07,21,16,18,29.10
2010,07,21,16,19,29.10
2010,07,21,16,20,29.10
2010,07,21,16,21,29.20
2010,07,21,16,22,29.20
2010,07,21,16,23,29.20
2010,07,21,16,24,29.20
2010,07,21,16,25,29.30
2010,07,21,16,26,29.30
2010,07,21,16,27,29.40
2010,07,21,16,28,29.40
2010,07,21,16,29,29.40
2010,07,21,16,30,29.40
2010,07,21,16,31,29.40
2010,07,21,16,32,29.40
2010,07,21,16,33,29.40
2010,07,21,16,34,29.40
2010,07,21,16,35,29.40
2010,07,21,16,36,29.30
2010,07,21,16,37,29.30
2010,07,21,16,38,29.30
2010,07,21,16,39,29.30
2010,07,21,16,40,29.20
2010,07,21,16,41,29.20
2010,07,21,16,42,29.20
2010,07,21,16,43,29.20
2010,07,21,16,44,29.20
2010,07,21,16,45,29.20
2010,07,21,16,46,29.20
2010,07,21,16,47,29.20
2010,07,21,16,48,29.20
2010,07,21,16,49,29.20
2010,07,21,16,50,29.20
2010,07,21,16,51,29.20
2010,07,21,16,52,29.20
2010,07,21,16,53,29.20
2010,07,21,16,54,29.20
2010,07,21,16,55,29.20
2010,07,21,16,56,29.20
2010,07,21,16,57,29.20
2010,07,21,16,58,29.20
2010,07,21,16,59,29.20
2010,07,21,17,00,29.20
2010,07,21,17,01,29.10
2010,07,21,17,02,29.10
2010,07,21,17,03,29.10
2010,07,21,17,04,29.10
2010,07,21,17,05,29.10
2010,07,21,17,06,29.10
2010,07,21,17,07,29.10
2010,07,21,17,08,29.00
2010,07,21,17,09,29.00
2010,07,21,17,10,29.00
2010,07,21,17,11,29.00
2010,07,21,17,12,29.00
2010,07,21,17,13,29.00
2010,07,21,17,14,28.90
2010,07,21,17,15,28.90
2010,07,21,17,16,29.00
2010,07,21,17,17,28.90
2010,07,21,17,18,28.90
2010,07,21,17,19,28.90
2010,07,21,17,20,29.00
2010,07,21,17,21,29.00
2010,07,21,17,22,29.00